Regional Weather Roundup
Issued by NWS Kansas City/Pleasant Hill, MO

Home | Current Version | Previous Version | Text Only | Print | Product List | Glossary On
Versions: 1 2 3 4 5 6 7 8 9 10 11 12 13 14 15 16 17 18 19 20 21 22 23 24 25 26 27 28 29 30 31 32 33 34 35 36 37 38 39 40 41 42 43 44 45 46 47 48 49 50
000
ASUS43 KEAX 280210
RWREAX

WEATHER ROUNDUP FOR EASTERN KANSAS AND NORTHWEST MISSOURI
NATIONAL WEATHER SERVICE KANSAS CITY/PLEASANT HILL MO
900 PM CDT MON JUL 27 2015

KSZ040-057-103>105-MOZ028-029-037-043-280300-
...KANSAS CITY METROPOLITAN AREA...

CITY           SKY/WX    TMP DP  RH WIND       PRES   REMARKS
K.C. INTL      PTCLDY    82  74  76 SE8       29.88S
K.C. DOWNTOWN  CLEAR     90  73  57 S7        29.86S HX  98
LEES SUMMIT    CLEAR     87  74  64 SE3       29.90R HX  95
OLATHE - IXD   CLEAR     86  74  67 SE7       29.89R HX  94
OLATHE - OJC   CLEAR     84  74  71 SE6       29.89R HX  91
LAWRENCE       CLEAR     82  75  79 SE7       29.86S

$$

MOZ001>008-011>017-020>025-030>033-038>040-044>046-053-054-280300-
...NORTHERN AND CENTRAL MISSOURI...

CITY           SKY/WX    TMP DP  RH WIND       PRES   REMARKS
ST. JOSEPH     CLEAR     82  75  79 E14       29.86R
MOSBY          CLEAR     84  77  79 E5        29.87S HX  94
WARRENSBURG    CLEAR     82  73  74 E5        29.90R
WHITEMAN AFB   PTCLDY    85  77  77 SE5       29.90R HX  96
CLINTON          N/A     86  79  79 CALM      29.91R HX  99
SEDALIA        CLEAR     85  77  77 E3        29.92S HX  95
WARSAW         NOT AVBL
CHILLICOTHE      N/A     78  71  79 SE7       29.93S
KIRKSVILLE     MOCLDY    75  71  87 SE7       29.96R

$$

MOZ041-047>049-056>058-063>065-088>090-097-280300-
...EASTERN AND SOUTHERN MISSOURI...

CITY           SKY/WX    TMP DP  RH WIND       PRES   REMARKS
ST. LOUIS INTL CLOUDY    79  70  73 N15       29.98R
SPIRIT OF STL  LGT RAIN  79  74  84 NW5       29.96R
COLUMBIA       LGT RAIN  79  72  79 NE17G25   29.96R
JEFFERSON CITY CLEAR     89  75  63 NE14      29.91R HX  99
ROLLA          CLEAR     82  78  88 CALM      29.95R HX  91
OSAGE BEACH    PTCLDY    82  77  83 CALM      29.93R HX  91
SPRINGFIELD    CLEAR     84  74  71 S8        29.94R HX  91
BRANSON        PTCLDY    82  75  78 SE6       29.96R
JOPLIN         CLEAR     85  76  74 S3        29.91R HX  94
WEST PLAINS    MOCLDY    80  71  74 CALM      29.99R

$$

IAZ060-094-KSZ022-034>040-054-083-096-NEZ052-066-093-280300-
...KANSAS...SOUTHEAST NEBRASKA AND IOWA...

CITY           SKY/WX    TMP DP  RH WIND       PRES   REMARKS
TOPEKA         CLEAR     85  73  67 SE7       29.85R HX  91
MANHATTAN      CLEAR     85  71  63 S7        29.82R HX  90
EMPORIA        CLEAR     85  70  60 S13       29.85F
CHANUTE        CLEAR     84  75  74 S6        29.88S HX  92
WICHITA        PTCLDY    87  66  49 S12       29.84R
OMAHA          PTCLDY    78  70  76 SE16      29.84S
LINCOLN        CLEAR     86  77  74 SE13      29.81S HX  97
FALLS CITY     CLEAR     81  77  88 E10       29.84R
LAMONI         PTCLDY    76  71  85 SE6       29.92S
DES MOINES     MOCLDY    74  67  78 S10       29.89S

$$




USA.gov is the U.S. government's official web portal to all federal, state and local government web resources and services.